Find Starlink 6067

NORAD ID: 56816 Int'l Des: 2023-078 Owner: SPXS Country: US Constellation: starlink operational
LEOCIRCULAR

当前视图

正在加载3D地球...

About Starlink 6067

Starlink 6067 (NORAD 56816) is a starlink constellation satellite (v1.5) launched May 31, 2023 by SPXS of US. It operates in LEO, CIRCULAR orbit with a mass of 305.00 kg.

关于 Starlink 6067

正在加载描述...

即将过境

Passes for default location (London). Set your location on the main map for personalized predictions.

高度历史

Loading altitude history...

两行轨道根数

1 56816U 23078BB 26194.90106971 .00000107 00000-0 16747-4 0 9998
2 56816 70.0003 6.0352 0002873 266.0772 94.0058 14.98330934172082
Epoch: Jul 13, 2026 • Age: 17 hours

当前状态

高度 585.1 km
远地点 / 近地点 N/A
速度 7.57 km/s
星下点 -39.53°S, 49.59°E
发射日期 May 31, 2023
运行时间 3.1 years
类型 internet

技术详情

分类 Payload
质量 305.00 kg
干质量 290.00 kg
总质量 305.00 kg
长度 0.20 m
直径 2.80 m
跨度 9.00 m
形状 Box + pan
制造商 SPXS
平台类型 Starlink
阶段状态 In Orbit
所有者/国家 SPXS/US

Most Searched